GSAT0201 (GALILEO 5) (40128 NORAD) Tracking and Keplerian Element Data

This shows tracking and keplerian element data for the satellite.

Feedback or suggestion? Click here.




ElementValue
Catalog40128
NameGSAT0201 (GALILEO 5)
Epoch Orbit2464
Epoch Day195.45873196
Epoch Year2018
RAAN29.4988
Inclination50.4863
Eccentricity0.165361
Argument of Perigee76.6652
Mean Anonmoly301.2753
Mean Motion1.85518351
Decay Rate-9E-07
L11 40128U 14050A 18195.45873196 -.00000090 00000-0 00000-0 0 9992
L22 40128 50.4863 29.4988 1653610 76.6652 301.2753 1.85518351 24641

Live tracking and technical data element details for GSAT0201 (GALILEO 5) (NORAD 40128). GSAT0201 (GALILEO 5) can be tracked NOW for your location showing map with azimuth and elevation plus other details from your city location.

Track the satellite on the map from your city or location and see movement details for azimuth, elevation, latitude, longitude, range, height, and movement on the map or in text.







IsCatalogInMostPopularTable: catalog: 40128, numindb: 68
Update: records affected: 1



GetName: 40128 GSAT0201 (GALILEO 5)

Hit Count: updated at: Sun, 15 Jul 2018 23:04:00 GMT